Bronx, New York, United States (10451)
Lat: 40.85N, Lon: 73.87W
Wx Zone: NYZ073
Local Info
Past Weather Observations for Today

NOTE: This archive is for the closest National Weather Service station to Bronx. Information may differ from the station used for current weather conditions.

Click here for Long-term Archive

Time Weather Temperature Dewpoint Humidity Pressure Winds Precip Visibility
21:51
Mostly Cloudy
Light Rain
72°F / 22°C 70°F / 21°C 94% 30.06 in
(1018 mb)
S 6.9 mph
(S 11 kph)
0.00 in
(0.00 mm)
10SM
20:51
Mostly Cloudy
72°F / 22°C 70°F / 21°C 94% 30.06 in
(1018 mb)
S 6.9 mph
(S 11 kph)
- 10SM
19:51
Mostly Cloudy
73°F / 23°C 72°F / 22°C 94% 30.06 in
(1018 mb)
SSE 16.1 mph
(SSE 26 kph)
- 10SM
18:51
Mostly Cloudy
73°F / 23°C 72°F / 22°C 94% 30.06 in
(1018 mb)
S 17.3 mph
(S 28 kph)
- 10SM
17:51
Mostly Cloudy
75°F / 24°C 70°F / 21°C 83% 30.06 in
(1018 mb)
S 18.4 mph
(S 30 kph)
- 10SM
16:51
Mostly Cloudy
Cumulonimbus Clouds Observed
75°F / 24°C 72°F / 22°C 89% 30.06 in
(1018 mb)
S 19.6 mph
(S 32 kph)
- 10SM
15:51
Mostly Cloudy
79°F / 26°C 72°F / 22°C 79% 30.06 in
(1018 mb)
SSE 18.4 mph
(SSE 30 kph)
- 10SM
14:51
Mostly Cloudy
Cumulonimbus Clouds Observed
81°F / 27°C 70°F / 21°C 70% 30.09 in
(1019 mb)
S 15 mph
(S 24 kph)
- 10SM
13:51
Mostly Cloudy
Cumulonimbus Clouds Observed
84°F / 29°C 55°F / 13°C 37% 30.09 in
(1019 mb)
SSE 17.3 mph
(SSE 28 kph)
- 10SM
12:51
Mostly Cloudy
84°F / 29°C 66°F / 19°C 55% 30.12 in
(1020 mb)
SSE 13.8 mph
(SSE 22 kph)
- 10SM
11:51
Mostly Cloudy
84°F / 29°C 66°F / 19°C 55% 30.12 in
(1020 mb)
S 13.8 mph
(S 22 kph)
- 10SM
10:51
Mostly Cloudy
86°F / 30°C 64°F / 18°C 49% 30.12 in
(1020 mb)
SSE 12.7 mph
(SSE 20 kph)
- 10SM
09:51
Mostly Cloudy
86°F / 30°C 64°F / 18°C 49% 30.12 in
(1020 mb)
SW 8.1 mph
(SW 13 kph)
- 10SM
08:51
Mostly Cloudy
82°F / 28°C 63°F / 17°C 51% 30.12 in
(1020 mb)
SW 8.1 mph
(SW 13 kph)
- 10SM
07:51
Partly Cloudy
81°F / 27°C 63°F / 17°C 54% 30.12 in
(1020 mb)
S 8.1 mph
(S 13 kph)
- 10SM
06:51
Partly Cloudy
77°F / 25°C 63°F / 17°C 61% 30.15 in
(1021 mb)
SW 6.9 mph
(SW 11 kph)
- 10SM
05:51
Partly Cloudy
75°F / 24°C 61°F / 16°C 61% 30.15 in
(1021 mb)
SSE 8.1 mph
(SSE 13 kph)
- 10SM
04:51
Partly Cloudy
73°F / 23°C 59°F / 15°C 61% 30.12 in
(1020 mb)
SSE 5.8 mph
(SSE 9 kph)
- 10SM
03:51
Partly Cloudy
73°F / 23°C 57°F / 14°C 57% 30.12 in
(1020 mb)
SSE 4.6 mph
(SSE 7 kph)
- 10SM
02:51
Clear
75°F / 24°C 59°F / 15°C 57% 30.12 in
(1020 mb)
SW 5.8 mph
(SW 9 kph)
- 10SM
01:51
Clear
77°F / 25°C 57°F / 14°C 51% 30.12 in
(1020 mb)
SW 8.1 mph
(SW 13 kph)
- 10SM
00:51
Clear
79°F / 26°C 59°F / 15°C 51% 30.12 in
(1020 mb)
SW 8.1 mph
(SW 13 kph)
- 10SM
Time Weather Temperature Dewpoint Humidity Pressure Winds Precip Visibility


Weather for websites

WeatherForYou.com, LLC is not responsible for any damages or problems caused by this service. Current weather conditions are obtained from the closest station including government and personal stations which may have varying degrees of accuracy. Weather forecasts are derived from the NOAA NDFD. Like all things, this site belongs to Jesus Christ... He just trusts us to maintain it. If you have any questions or comments email webmaster@weatherforyou.com

Copyright © 2016, WeatherForYou.com LLC. All rights reserved.